This demonstration page uses our WeatherBlox Daily Observations layout. Learn more.

Hourly Observations for March 7, 2016

Temp ( °F °C ) Dew Point ( °F °C ) Humidity (%) Winds ( mph kmh ) Pressure ( in mb ) Visibility ( mi km ) Precip ( " mm )
12:15 am 00:15 Clear 34 1 32 0 93 93 Calm 30.33 1027 10 16.09344 0 0
12:35 am 00:35 Clear 34 1 32 0 93 93 Calm 30.33 1027 10 16.09344 0 0
12:55 am 00:55 Clear 32 0 32 0 100 100 Calm 30.33 1027 10 16.09344 0 0
1:15 am 01:15 Clear 32 0 30 -1 93 93 Calm 30.33 1027 10 16.09344 0 0
1:35 am 01:35 Clear 32 0 32 0 100 100 Calm 30.33 1027 10 16.09344 0 0
1:55 am 01:55 Clear 32 0 32 0 100 100 SSE 6 9 30.33 1027 10 16.09344 0 0
2:15 am 02:15 Clear 32 0 30 -1 93 93 S 5 7 30.33 1027 10 16.09344 0 0
2:35 am 02:35 Clear 34 1 32 0 93 93 S 7 11 30.3 1026 10 16.09344 0 0
2:55 am 02:55 Clear 34 1 32 0 93 93 S 8 13 30.3 1026 10 16.09344 0 0
3:15 am 03:15 Clear 34 1 32 0 93 93 S 7 11 30.3 1026 10 16.09344 0 0
3:35 am 03:35 Clear 36 2 34 1 93 93 S 8 13 30.27 1025 10 16.09344 0 0
3:55 am 03:55 Clear 36 2 34 1 93 93 S 8 13 30.27 1025 10 16.09344 0 0
4:15 am 04:15 Clear 36 2 34 1 93 93 S 7 11 30.27 1025 10 16.09344 0 0
4:35 am 04:35 Clear 36 2 34 1 93 93 S 6 9 30.3 1026 10 16.09344 0 0
4:55 am 04:55 Clear 34 1 34 1 100 100 S 5 7 30.3 1026 10 16.09344 0 0
5:15 am 05:15 Clear 34 1 32 0 93 93 S 7 11 30.3 1026 10 16.09344 0 0
5:35 am 05:35 Clear 36 2 34 1 93 93 S 6 9 30.3 1026 10 16.09344 0 0
5:55 am 05:55 Clear 34 1 34 1 100 100 S 5 7 30.3 1026 10 16.09344 0 0
6:15 am 06:15 Clear 36 2 34 1 93 93 SSE 3 6 30.27 1025 10 16.09344 0 0
6:35 am 06:35 Sunny 32 0 32 0 100 100 SSW 3 6 30.3 1026 7 11.265408 0 0
6:55 am 06:55 Sunny with Mist and Fog 32 0 32 0 100 100 S 3 6 30.3 1026 5 8.04672 0 0
7:15 am 07:15 Sunny 34 1 34 1 100 100 S 6 9 30.3 1026 7 11.265408 0 0
7:35 am 07:35 Sunny 36 2 36 2 100 100 S 5 7 30.3 1026 7 11.265408 0 0
7:55 am 07:55 Sunny 37 3 36 2 93 93 S 6 9 30.3 1026 7 11.265408 0 0
8:15 am 08:15 Sunny 39 4 37 3 93 93 S 7 11 30.3 1026 7 11.265408 0 0
8:35 am 08:35 Sunny 41 5 37 3 87 87 SSW 7 11 30.3 1026 10 16.09344 0 0
8:55 am 08:55 Sunny 43 6 37 3 81 81 S 7 11 30.3 1026 10 16.09344 0 0
9:15 am 09:15 Sunny 45 7 37 3 76 76 SSE 6 9 30.3 1026 10 16.09344 0 0
9:35 am 09:35 Sunny 46 8 39 4 76 76 S 6 9 30.3 1026 10 16.09344 0 0
9:55 am 09:55 Sunny 48 9 41 5 76 76 S 6 9 30.3 1026 10 16.09344 0 0
10:15 am 10:15 Sunny 50 10 41 5 71 71 SSW 7 11 30.27 1025 10 16.09344 0 0
10:35 am 10:35 Sunny 52 11 41 5 67 67 SSW 3 6 30.27 1025 10 16.09344 0 0
10:55 am 10:55 Sunny 54 12 41 5 63 63 SSW 7 11 30.24 1024 10 16.09344 0 0
11:15 am 11:15 Sunny 55 13 41 5 59 59 SW 9 15 30.24 1024 10 16.09344 0 0
11:35 am 11:35 Sunny 59 15 41 5 51 51 S 10 17 30.24 1024 10 16.09344 0 0
11:55 am 11:55 Sunny 59 15 39 4 48 48 SSW 8 13 30.21 1023 10 16.09344 0 0
12:15 pm 12:15 Sunny 61 16 41 5 48 48 S 10 17 30.21 1023 10 16.09344 0 0
12:35 pm 12:35 Sunny 63 17 39 4 42 42 SSW 10 17 30.18 1022 10 16.09344 0 0
12:55 pm 12:55 Sunny 63 17 39 4 42 42 S 12 19 30.18 1022 10 16.09344 0 0
1:15 pm 13:15 Sunny 64 18 39 4 40 40 S 12 19 30.15 1021 10 16.09344 0 0
1:35 pm 13:35 Sunny 66 19 37 3 35 35 SW 10 17 30.15 1021 10 16.09344 0 0
1:55 pm 13:55 Sunny 68 20 37 3 33 33 S 16 26 30.12 1020 10 16.09344 0 0
2:15 pm 14:15 Sunny 68 20 36 2 30 30 SW 12 19 30.12 1020 10 16.09344 0 0
2:35 pm 14:35 Sunny 68 20 36 2 30 30 SW 12 19 30.12 1020 10 16.09344 0 0
2:55 pm 14:55 Sunny 68 20 34 1 28 28 SW 13 20 30.12 1020 10 16.09344 0 0
3:15 pm 15:15 Sunny 68 20 36 2 30 30 SW 14 22 30.12 1020 10 16.09344 0 0
3:35 pm 15:35 Sunny 68 20 34 1 28 28 SSW 13 20 30.12 1020 10 16.09344 0 0
3:55 pm 15:55 Sunny 66 19 36 2 32 32 SSW 13 20 30.12 1020 10 16.09344 0 0
4:15 pm 16:15 Sunny 64 18 34 1 32 32 SW 9 15 30.12 1020 10 16.09344 0 0
4:35 pm 16:35 Sunny 64 18 36 2 34 34 SW 9 15 30.12 1020 10 16.09344 0 0
4:55 pm 16:55 Sunny 64 18 36 2 34 34 SW 8 13 30.12 1020 10 16.09344 0 0
5:15 pm 17:15 Sunny 64 18 36 2 34 34 SW 8 13 30.12 1020 10 16.09344 0 0
5:35 pm 17:35 Sunny 63 17 36 2 37 37 SW 14 22 30.12 1020 10 16.09344 0 0
5:55 pm 17:55 Sunny 63 17 36 2 37 37 SSW 9 15 30.12 1020 10 16.09344 0 0
6:15 pm 18:15 Clear 61 16 36 2 39 39 SSW 8 13 30.12 1020 10 16.09344 0 0
6:35 pm 18:35 Clear 61 16 36 2 39 39 SW 7 11 30.12 1020 10 16.09344 0 0
6:55 pm 18:55 Clear 61 16 36 2 39 39 SW 8 13 30.12 1020 10 16.09344 0 0
7:15 pm 19:15 Clear 61 16 36 2 39 39 WSW 7 11 30.12 1020 10 16.09344 0 0
7:35 pm 19:35 Clear 59 15 36 2 42 42 SW 6 9 30.12 1020 10 16.09344 0 0
7:55 pm 19:55 Clear 59 15 36 2 42 42 SSW 6 9 30.12 1020 10 16.09344 0 0
8:15 pm 20:15 Clear 57 14 36 2 44 44 S 6 9 30.12 1020 10 16.09344 0 0
8:35 pm 20:35 Clear 57 14 36 2 44 44 S 6 9 30.12 1020 10 16.09344 0 0
8:55 pm 20:55 Clear 57 14 36 2 44 44 Calm 30.12 1020 10 16.09344 0 0
9:15 pm 21:15 Clear 55 13 36 2 47 47 ESE 3 6 30.12 1020 10 16.09344 0 0
9:35 pm 21:35 Clear 52 11 37 3 58 58 SSW 7 11 30.12 1020 10 16.09344 0 0
9:55 pm 21:55 Clear 54 12 37 3 54 54 S 3 6 30.12 1020 10 16.09344 0 0
10:15 pm 22:15 Clear 52 11 37 3 58 58 SSW 5 7 30.12 1020 10 16.09344 0 0
10:35 pm 22:35 Clear 50 10 37 3 62 62 Calm 30.15 1021 10 16.09344 0 0
10:55 pm 22:55 Clear 50 10 37 3 62 62 Calm 30.15 1021 10 16.09344 0 0
11:15 pm 23:15 Clear 50 10 37 3 62 62 SSW 5 7 30.15 1021 10 16.09344 0 0
11:35 pm 23:35 Clear 52 11 37 3 58 58 Calm 30.12 1020 10 16.09344 0 0
11:55 pm 23:55 Partly Cloudy 48 9 39 4 71 71 S 3 6 30.15 1021 10 16.09344 0 0

Powered by AerisWeather